Showing default

DIADEME 1, 2674

Orbit data source: Space-Track

DIADEME 1, 2674 is a payload satellite owned by CNES (FR) in LEO that was launched on Wed, 08 Feb 1967 UTC via a DIAMANT A launch vehicle from the Hamma Guira Space Track Range (HGSTR). Payload-class satellites include a variety of spacecraft equipped with specific instruments for various scientific and technological missions. These include communications satellites like Starlink; space stations such as the ISS; scientific satellites like the Hubble; Earth observation satellites from companies like Planet Labs, Umbra, and HawkEye 360; GPS; miniature CubeSats for education and research; and military/defense satellites.

Loading next visibility...
Identifier
2674, 1967-011A
Orbit
LEO
Last TLE update
5 hours ago
Origin
Manufacturer
CNES
Mission
Civil Geodetic
Bus & Motor
D-1, Unknown motor
Mass
23 kg wet, 23 kg dry
Launch date (UTC)
1967-02-08 (58 years ago)
Launch vehicle
DIAMANT A
Launch site
Hamma Guira Space Track Range (HGSTR)
Object type
Payload
Rocket body
Debris
Shape & HBR
Cyl + 4 Pan, 0.8 m
Radar Cross Section
0.455 m², Medium (>0.1 m² and < 1m²)

Expand to show TLE details & history

TLE from 5 hours ago
0 DIADEME 1
1  2674U 67011A   25199.77507148  .00004241  00000-0  50145-3 0  9998
2  2674  39.9179 319.7318 0219456 117.4345 244.8938 14.69575154 40462
Epoch: 2025-07-18T18:36Z
TLE epoch observation values (Epoch: 2025-07-18T18:36:06.175Z)
Latitude
-0.00005°
Longitude
103.88432°
Altitude
730.162 km
Speed
7.456 km/s
True Right ascension
21h 18m 55s
True Declination
0° 00' 00"
Sunlit
Object was in full shadow at epoch
Visualization orbit readout
Latitude
-24.64653°
Longitude
69.76325°
Altitude
811.932 km
Speed
7.372 km/s
Apparent Right ascension
21h 08m 41s
Apparent Declination
-37° 50' 59"
Sunlit
Object is in full shadow
Visualization observer readout
Local Sidereal Time
12:05:56
Azimuth
101.086° ESE
Elevation
-55.797°
Doppler factor
1
Orbital elements
Apogee altitude
819.385 km
Perigee altitude
510.261 km
Semi-major axis
7,042.96 km
Eccentricity
0.02195
Inclination
39.9179°
RAAN
319.7318°
Arg. of periapsis
117.4345°
True anomaly
242.6434°
Mean anomaly
244.8938°
Eccentric anomaly
243.76593°
Mean motion
3.67206 °/min
Orbital period
98.04 mins
BSTAR
0.00050145
Loading maneuver chart data...
Loading SW <> Apogee altitude chart data...
|